Location: Alphen
(52.1351°N, 4.6549°E)
Time: 00:36:53
(UTC+00:00)

COSMOS 2428 - Pass Details

Date: 27 January 2021
Orbit: 848 x 855 km, 70.9° (Epoch: 27 February)

Event Time Altitude Azimuth Distance (km) Brightness Sun altitude
Exits shadow 04:25:06 48° 354° (N) 1,108 3.2 -28.0°
Drops below altitude 10° 04:29:29 10° 26° (NNE) 2,485 5.5 -27.4°
Sets 04:32:00 0° 31° (NNE) 3,424 6.3 -27.0°
